Weather History for Erie, PA

Change the Weather History Date:

Wednesday, February 20, 2013

  Actual Average Record
Temperature  
Mean Temperature 20 °F 29 °F  
Max Temperature 22 °F 36 °F 66 °F (1930)
Min Temperature 17 °F 22 °F -8 °F (1934)
Degree Days  
Heating Degree Days 45 36  
Month to date heating degree days 776 746  
Since 1 July heating degree days 3816 4084  
Cooling Degree Days 0 0  
Month to date cooling degree days 0 0  
Year to date cooling degree days 0 0  
Moisture  
Dew Point 13 °F    
Average Humidity 77    
Maximum Humidity 91    
Minimum Humidity 62    
Precipitation  
Precipitation 0.38 in 0.08 in 0.61 in (2014)
Month to date precipitation 2.10 1.66  
Year to date precipitation 5.42 4.61  
Snow  
Snow 3.70 in 0.60 in - ()
Month to date snowfall 25.2 13.4  
Since 1 July snowfall 77.7 79.2  
Snow Depth 4.00 in    
Sea Level Pressure  
Sea Level Pressure 30.00 in    
Wind  
Wind Speed 16 mph (West)    
Max Wind Speed 25 mph    
Max Gust Speed 37 mph    
Visibility 3 miles    
Events Fog , Snow    
T = Trace of Precipitation, MM = Missing Value Source: NWS Daily Summary

Daily Weather History Graph

Daily Weather History Graph

Search for Another Location

Airport:

Trip Planner

Search our weather history database for the weather conditions in past years. The results will help you decide how hot, cold, wet, or windy it might be!

Date:

Astronomy

Feb. 20, 2013 Rise Set
Actual Time 7:09 AM EST 6:00 PM EST
Civil Twilight 6:40 AM EST 6:28 PM EST
Nautical Twilight 6:08 AM EST 7:01 PM EST
Astronomical Twilight 5:36 AM EST 7:33 PM EST
Moon 1:17 PM EST (2/20) 3:31 AM EST (2/20)
Length of Visible Light 11h 47m
Length of Day
10h 50m
Waxing Gibbous, 76% of the Moon is Illuminated
Feb 20
Waxing Gibbous
Feb 25
Full
Mar 4
Last Quarter
Mar 11
New
Mar 19
First Quarter

Hourly Weather History & Observations

Time (EST) Temp. Windchill Dew Point Humidity Pressure Visibility Wind Dir Wind Speed Gust Speed Precip Events Conditions
12:25 AM 19.4 °F 8.6 °F 15.8 °F 86% 29.87 in 3.0 mi WSW 9.2 mph - 0.00 in Snow Light Snow
12:33 AM 19.4 °F 4.5 °F 15.8 °F 86% 29.87 in 1.5 mi WSW 17.3 mph 28.8 mph 0.00 in Snow Light Snow
12:49 AM 19.4 °F 5.5 °F 15.8 °F 86% 29.87 in 1.0 mi SW 15.0 mph 21.9 mph 0.00 in Snow Light Snow
12:51 AM 19.9 °F 6.2 °F 16.0 °F 85% 29.90 in 1.0 mi SW 15.0 mph 21.9 mph 0.00 in Snow Light Snow
12:54 AM 19.4 °F 7.9 °F 15.8 °F 86% 29.87 in 0.8 mi SW 10.4 mph 20.7 mph 0.00 in Snow Light Snow
1:00 AM 19.4 °F 6.0 °F 15.8 °F 86% 29.87 in 0.8 mi SW 13.8 mph - 0.00 in Snow Light Snow
1:12 AM 19.4 °F 5.0 °F 15.8 °F 86% 29.87 in 0.5 mi SW 16.1 mph - 0.01 in Fog , Snow Snow
1:51 AM 19.0 °F 5.6 °F 15.1 °F 85% 29.91 in 0.5 mi SW 13.8 mph 25.3 mph 0.03 in Fog , Snow Snow
1:58 AM 19.4 °F 5.5 °F 15.8 °F 86% 29.88 in 0.8 mi SW 15.0 mph 25.3 mph 0.00 in Snow Light Snow
2:28 AM 17.6 °F 4.3 °F 15.8 °F 93% 29.88 in 0.5 mi SW 12.7 mph - 0.01 in Fog , Snow Snow
2:49 AM 17.6 °F 2.7 °F 14.0 °F 86% 29.89 in 0.8 mi SW 16.1 mph 21.9 mph 0.03 in Snow Light Snow
2:51 AM 18.0 °F 3.6 °F 14.0 °F 84% 29.92 in 0.8 mi SW 15.0 mph 21.9 mph 0.03 in Snow Light Snow
3:13 AM 17.6 °F 1.7 °F 14.0 °F 86% 29.89 in 0.5 mi SW 18.4 mph 25.3 mph 0.00 in Fog , Snow Snow
3:20 AM 17.6 °F 1.7 °F 12.2 °F 79% 29.89 in 1.0 mi SW 18.4 mph 25.3 mph 0.00 in Snow Light Snow
3:35 AM 17.6 °F 3.7 °F 12.2 °F 79% 29.89 in 0.8 mi SW 13.8 mph 23.0 mph 0.00 in Snow Light Snow
3:51 AM 17.1 °F 3.6 °F 12.9 °F 84% 29.93 in 0.8 mi SW 12.7 mph 20.7 mph 0.01 in Snow Light Snow
3:58 AM 17.6 °F 5.0 °F 12.2 °F 79% 29.89 in 1.0 mi SW 11.5 mph 21.9 mph 0.00 in Snow Light Snow
4:09 AM 17.6 °F 3.7 °F 12.2 °F 79% 29.90 in 0.8 mi SW 13.8 mph - 0.00 in Snow Light Snow
4:16 AM 17.6 °F 3.2 °F 14.0 °F 86% 29.90 in 0.5 mi SW 15.0 mph 20.7 mph 0.01 in Fog , Snow Snow
4:27 AM 17.6 °F 4.3 °F 14.0 °F 86% 29.90 in 0.5 mi SW 12.7 mph 20.7 mph 0.01 in Fog , Snow Snow
4:31 AM 17.6 °F 3.7 °F 14.0 °F 86% 29.90 in 1.0 mi SW 13.8 mph - 0.01 in Snow Light Snow
4:38 AM 17.6 °F 4.3 °F 12.2 °F 79% 29.90 in 1.0 mi SW 12.7 mph 19.6 mph 0.01 in Snow Light Snow
4:51 AM 18.0 °F 5.4 °F 14.0 °F 84% 29.94 in 1.0 mi SW 11.5 mph - 0.02 in Snow Light Snow
5:06 AM 17.6 °F 2.2 °F 14.0 °F 86% 29.91 in 0.8 mi SW 17.3 mph 24.2 mph 0.17 in Snow Light Snow
5:17 AM 17.6 °F 3.7 °F 14.0 °F 86% 29.92 in 0.5 mi WSW 13.8 mph 20.7 mph 0.17 in Fog , Snow Snow
5:25 AM 17.6 °F 5.7 °F 15.8 °F 93% 29.92 in 0.5 mi WSW 10.4 mph 20.7 mph 0.17 in Fog , Snow Snow
5:36 AM 17.6 °F 6.4 °F 14.0 °F 86% 29.92 in 0.8 mi WSW 9.2 mph 16.1 mph 0.18 in Snow Light Snow
5:39 AM 17.6 °F 5.7 °F 15.8 °F 93% 29.92 in 0.5 mi WSW 10.4 mph 19.6 mph 0.18 in Fog , Snow Snow
5:51 AM 19.0 °F 7.5 °F 16.0 °F 88% 29.95 in 0.8 mi WSW 10.4 mph 23.0 mph 0.19 in Snow Light Snow
5:54 AM 19.4 °F 3.6 °F 15.8 °F 86% 29.92 in 1.0 mi West 19.6 mph 28.8 mph 0.00 in Snow Light Snow
6:13 AM 19.4 °F 2.8 °F 14.0 °F 80% 29.93 in 1.5 mi West 21.9 mph 34.5 mph 0.00 in Snow Light Snow
6:36 AM 19.4 °F 3.2 °F 12.2 °F 74% 29.93 in 1.5 mi West 20.7 mph 36.8 mph 0.00 in Snow Light Snow
6:51 AM 19.9 °F 4.3 °F 10.9 °F 68% 29.97 in 1.5 mi West 19.6 mph 35.7 mph 0.00 in Snow Light Snow
7:01 AM 19.4 °F 3.6 °F 12.2 °F 74% 29.94 in 2.0 mi West 19.6 mph 29.9 mph 0.00 in Snow Light Snow
7:04 AM 19.4 °F 4.5 °F 14.0 °F 80% 29.94 in 1.0 mi West 17.3 mph 29.9 mph 0.00 in Snow Light Snow
7:12 AM 19.4 °F 2.8 °F 15.8 °F 86% 29.94 in 0.8 mi West 21.9 mph 33.4 mph 0.00 in Snow Light Snow
7:23 AM 19.4 °F 3.6 °F 10.4 °F 68% 29.94 in 1.2 mi West 19.6 mph 33.4 mph 0.00 in Snow Light Snow
7:35 AM 19.4 °F 3.2 °F 10.4 °F 68% 29.95 in 2.0 mi West 20.7 mph 34.5 mph 0.00 in   Overcast
7:43 AM 19.4 °F 3.6 °F 10.4 °F 68% 29.95 in 1.2 mi West 19.6 mph 28.8 mph 0.00 in Snow Light Snow
7:51 AM 19.9 °F 5.7 °F 12.0 °F 71% 29.99 in 1.8 mi West 16.1 mph 29.9 mph 0.00 in Snow Light Snow
8:12 AM 19.4 °F 4.1 °F 14.0 °F 80% 29.96 in 0.8 mi West 18.4 mph 29.9 mph 0.00 in Snow Light Snow
8:28 AM 19.4 °F 5.0 °F 14.0 °F 80% 29.96 in 1.0 mi West 16.1 mph 27.6 mph 0.00 in Snow Light Snow
8:51 AM 19.9 °F 4.8 °F 14.0 °F 78% 30.01 in 0.5 mi West 18.4 mph 33.4 mph 0.00 in Snow Snow
9:10 AM 19.4 °F 4.5 °F 14.0 °F 80% 29.97 in 1.0 mi West 17.3 mph 28.8 mph 0.00 in Snow Light Snow
9:37 AM 19.4 °F 4.5 °F 12.2 °F 74% 29.98 in 0.5 mi West 17.3 mph 35.7 mph 0.00 in Snow Snow
9:46 AM 19.4 °F 4.1 °F 12.2 °F 74% 29.98 in 1.0 mi West 18.4 mph 27.6 mph 0.03 in Snow Light Snow
9:51 AM 19.0 °F 2.7 °F 12.0 °F 74% 30.03 in 1.0 mi West 20.7 mph 29.9 mph 0.07 in Snow Light Snow
10:16 AM 19.4 °F 4.5 °F 8.6 °F 63% 30.00 in 3.0 mi West 17.3 mph 28.8 mph 0.00 in   Overcast
10:32 AM 19.4 °F 2.5 °F 8.6 °F 63% 30.01 in 2.0 mi West 23.0 mph 29.9 mph 0.00 in   Overcast
10:42 AM 19.4 °F 3.6 °F 8.6 °F 63% 30.01 in 6.0 mi West 19.6 mph 31.1 mph 0.00 in Snow Light Snow
10:51 AM 19.9 °F 4.3 °F 8.1 °F 60% 30.06 in 6.0 mi West 19.6 mph 29.9 mph 0.00 in Snow Light Snow
11:51 AM 19.9 °F 5.7 °F 8.1 °F 60% 30.07 in 3.0 mi West 16.1 mph 27.6 mph 0.00 in   Overcast
12:28 PM 19.4 °F 5.0 °F 10.4 °F 68% 30.04 in 1.8 mi West 16.1 mph 28.8 mph 0.03 in Snow Light Snow
12:39 PM 19.4 °F 4.1 °F 10.4 °F 68% 30.04 in 3.0 mi West 18.4 mph 28.8 mph 0.03 in Snow Light Snow
12:51 PM 19.9 °F 4.8 °F 10.0 °F 65% 30.08 in 4.0 mi West 18.4 mph 27.6 mph 0.03 in   Overcast
1:34 PM 19.4 °F 3.2 °F 10.4 °F 68% 30.06 in 1.2 mi West 20.7 mph 27.6 mph 0.00 in Snow Light Snow
1:49 PM 19.4 °F 4.5 °F 8.6 °F 63% 30.06 in 3.0 mi West 17.3 mph 27.6 mph 0.00 in Snow Light Snow
1:51 PM 19.9 °F 3.9 °F 8.1 °F 60% 30.10 in 4.0 mi West 20.7 mph 27.6 mph 0.00 in Snow Light Snow
2:51 PM 19.9 °F 5.2 °F 10.9 °F 68% 30.12 in 3.0 mi West 17.3 mph 26.5 mph 0.00 in Snow Light Snow
3:28 PM 19.4 °F 4.1 °F 12.2 °F 74% 30.09 in 1.8 mi West 18.4 mph 26.5 mph 0.00 in Snow Light Snow
3:36 PM 21.2 °F 7.8 °F 10.4 °F 63% 30.09 in 3.0 mi West 15.0 mph 25.3 mph 0.00 in Snow Light Snow
3:51 PM 21.0 °F 6.2 °F 10.9 °F 65% 30.13 in 4.0 mi West 18.4 mph 27.6 mph 0.00 in Snow Light Snow
4:25 PM 19.4 °F 4.5 °F 12.2 °F 74% 30.11 in 2.5 mi West 17.3 mph 25.3 mph 0.00 in Snow Light Snow
4:42 PM 21.2 °F 7.3 °F 12.2 °F 68% 30.11 in 4.0 mi West 16.1 mph 24.2 mph 0.00 in Snow Light Snow
4:51 PM 21.0 °F 7.6 °F 10.9 °F 65% 30.16 in 4.0 mi West 15.0 mph 28.8 mph 0.00 in Snow Light Snow
5:51 PM 21.0 °F 5.7 °F 12.0 °F 68% 30.18 in 3.0 mi West 19.6 mph 25.3 mph 0.00 in Snow Light Snow
6:51 PM 21.9 °F 7.8 °F 12.0 °F 66% 30.19 in 7.0 mi West 17.3 mph 26.5 mph 0.00 in Snow Light Snow
7:17 PM 21.2 °F 7.3 °F 12.2 °F 68% 30.15 in 9.0 mi West 16.1 mph 25.3 mph 0.00 in Snow Light Snow
7:51 PM 21.9 °F 8.2 °F 12.9 °F 68% 30.18 in 8.0 mi WNW 16.1 mph 25.3 mph 0.00 in Snow Light Snow
8:27 PM 21.2 °F 9.5 °F 12.2 °F 68% 30.15 in 9.0 mi WNW 11.5 mph 19.6 mph 0.00 in Snow Light Snow
8:51 PM 21.9 °F 8.7 °F 10.0 °F 60% 30.19 in 9.0 mi West 15.0 mph 21.9 mph 0.00 in Snow Light Snow
8:58 PM 21.2 °F 9.5 °F 10.4 °F 63% 30.15 in 9.0 mi West 11.5 mph 21.9 mph 0.00 in Snow Light Snow
9:28 PM 21.2 °F 9.5 °F 12.2 °F 68% 30.15 in 9.0 mi West 11.5 mph 20.7 mph 0.00 in Snow Light Snow
9:51 PM 21.2 °F 8.3 °F 10.4 °F 63% 30.15 in 9.0 mi West 13.8 mph 19.6 mph N/A Snow Light Snow
9:59 PM 21.2 °F 10.1 °F 12.2 °F 68% 30.15 in 9.0 mi West 10.4 mph - 0.00 in Snow Light Snow
10:51 PM 21.9 °F 8.7 °F 10.9 °F 63% 30.18 in 9.0 mi West 15.0 mph 21.9 mph 0.00 in Snow Light Snow
11:25 PM 21.2 °F 8.3 °F 14.0 °F 74% 30.14 in 6.0 mi West 13.8 mph - 0.00 in Snow Light Snow
11:51 PM 21.9 °F 8.7 °F 12.9 °F 68% 30.18 in 9.0 mi WNW 15.0 mph 21.9 mph 0.00 in Snow Light Snow